Showing default

GLOBALSTAR M078, 39076

Orbit data source: Space-Track

GLOBALSTAR M078, 39076 is a payload satellite owned by Globalstar (US) in LEO that was launched on Wed, 06 Feb 2013 UTC via a SOYUZ-2-1A launch vehicle from the Tyuratam Missile And Space Complex (TTMTR). Payload-class satellites include a variety of spacecraft equipped with specific instruments for various scientific and technological missions. These include communications satellites like Starlink; space stations such as the ISS; scientific satellites like the Hubble; Earth observation satellites from companies like Planet Labs, Umbra, and HawkEye 360; GPS; miniature CubeSats for education and research; and military/defense satellites.

Loading next visibility...
Identifier
39076, 2013-005E
Orbit
LEO
Country
Flag of UnknownUnknown / GLOB
Related business
Manufacturer
Thales Alenia
Mission
Operational Commercial Communications
Bus & Motor
PRISMA?, LS-400 AOCS?
Mass
715 kg wet, ~500 kg dry
Launch date (UTC)
2013-02-06 (13 years ago)
Launch vehicle
SOYUZ-2-1A
Launch site
Tyuratam Missile And Space Complex (TTMTR)
Object type
Payload
Rocket body
Debris
Shape & HBR
Trap Cyl + 2 Pan, 6.0 m
Radar Cross Section
20.931 m², Large (>1 m²)

Expand to show TLE details & history
Last TLE update: 14 hours ago

TLE from 14 hours ago
0 GLOBALSTAR M078
1 39076U 13005E   25346.72389340 -.00000088  00000-0  88321-4 0  9993
2 39076  51.9855 131.4471 0000977 162.2493 197.8407 12.62272436592468
Epoch: 2025-12-12T17:22Z
TLE epoch observation values (Epoch: 2025-12-12T17:22:24.389Z)
Latitude
-0.00009°
Longitude
149.18399°
Altitude
1,414.984 km
Speed
7.154 km/s
True Right ascension
08h 45m 47s
True Declination
0° 00' 00"
Sunlit
Object was in partial shadow at epoch
Visualization orbit readout
Latitude
Unknown
Longitude
Unknown
Altitude
Unknown
Speed
Unknown
Apparent Right ascension
Unknown
Apparent Declination
Unknown
Sunlit
N/A
Visualization observer readout
Local Sidereal Time
05:21:11
Azimuth
Unknown
Elevation
Unknown
Doppler factor
Unknown
Orbital elements
Apogee altitude
1,414.735 km
Perigee altitude
1,413.212 km
Semi-major axis
7,792.11 km
Eccentricity
0.0001
Inclination
51.9855°
RAAN
131.4471°
Arg. of periapsis
162.2493°
True anomaly
197.83727°
Mean anomaly
197.8407°
Eccentric anomaly
197.83899°
Mean motion
3.15544 °/min
Orbital period
114.09 mins
BSTAR
0.000088321
Loading maneuver chart data...
Computing Atmospheric mass density...
Loading historical data...
Loading historical data...
Loading historical data...
Loading historical data...
Loading historical data...
Loading historical data...
Loading historical data...

Documentation

Showing up to 5 results
|